Find Starlink 4530

NORAD ID: 53393 Int'l Des: 2022-097 Owner: SPXS Country: US Constellation: starlink operational
LEOCIRCULAR

現在のビュー

3D地球を読み込み中...

About Starlink 4530

Starlink 4530 (NORAD 53393) is a starlink constellation satellite (v1.5) launched Aug 10, 2022 by SPXS of US. It operates in LEO, CIRCULAR orbit with a mass of 297.00 kg.

Starlink 4530について

説明を読み込み中...

次回通過

Passes for default location (London). Set your location on the main map for personalized predictions.

高度履歴

Loading altitude history...

軌道要素

1 53393U 22097F 26165.94913163 .00000083 00000-0 23324-4 0 9998
2 53393 53.1612 47.4227 0001440 94.0059 266.1097 15.08830737213352
Epoch: Jun 14, 2026 • Age: 14 hours

現在のステータス

高度 551.8 km
速度 7.59 km/s
衛星直下点 -35.25°S, 84.08°W
打ち上げ日 Aug 10, 2022
運用期間 3.8 years
タイプ internet

技術仕様

分類 Payload
質量 297.00 kg
乾燥質量 275.00 kg
総質量 297.00 kg
長さ 0.20 m
直径 2.80 m
スパン 9.00 m
形状 Box + pan
製造者 SPXS
バスタイプ Starlink
フェーズステータス In Orbit
所有者/国 SPXS/US

Most Searched